Tracking 19637 objects as of 18-Apr-2019
HD Live streaming from Space Station
objects crossing your sky now

THORAD DELTA 1 DEB

Track THORAD DELTA 1 DEB now!
10-day predictions


NORAD ID: 8790
Int'l Code: 1974-089DS
Perigee: 1,403.0 km
Apogee: 1,467.4 km
Inclination: 101.6 °
Period: 114.4 minutes
Semi major axis: 7806 km
RCS: 0.0356 m2 (small)
Launch date: November 15, 1974
Source: United States (US)
Launch site: AIR FORCE WESTERN TEST RANGE (AFWTR)

Note: This is SATELLITE DEBRIS
aabbcc
Your satellite tracking list
Your tracking list is empty




NASA's NSSDC Master Catalog

Two Line Element Set (TLE):
1  8790U 74089DS  19107.88435524 -.00000046 +00000-0 -56500-5 0  9992
2  8790 101.5958 076.7722 0041251 148.5090 240.3570 12.58754696039271
Source of the keplerian elements: AFSPC